DL5TW-13 Weather Reports


time (UTC)temp
C
wind
direction
speed
KPH
gust
KPH
rain 1hr
cm
rain 24hr
cm
rain mn
cm
humidity
%
barometer
mb
20260509034959 1 157 0.0 0.0 0.00 0.00 0.00 90 1014.7
20260509034459 2 157 0.0 0.0 0.00 0.00 0.00 90 1014.6
20260509033958 1 157 0.0 0.0 0.00 0.00 0.00 89 1014.6
20260509033458 1 157 0.0 0.0 0.00 0.00 0.00 89 1014.6
20260509032958 1 157 0.0 0.0 0.00 0.00 0.00 89 1014.6
20260509032457 2 157 0.0 0.0 0.00 0.00 0.00 89 1014.7
20260509031957 1 157 0.0 0.0 0.00 0.00 0.00 89 1014.6
20260509031457 2 157 0.0 0.0 0.00 0.00 0.00 89 1014.5
20260509030957 2 157 0.0 0.0 0.00 0.00 0.00 89 1014.4
20260509030456 2 157 0.0 0.0 0.00 0.00 0.00 89 1014.7
20260509025956 2 157 0.0 0.0 0.00 0.00 0.00 89 1014.6
20260509025456 2 157 0.0 0.0 0.00 0.00 0.00 89 1014.6
20260509024955 2 157 0.0 0.0 0.00 0.00 0.00 89 1014.6
20260509024455 2 157 0.0 0.0 0.00 0.00 0.00 89 1014.8
20260509023955 2 157 0.0 0.0 0.00 0.00 0.00 89 1014.9
20260509023455 2 157 0.0 0.0 0.00 0.00 0.00 89 1014.7
20260509022954 2 157 0.0 0.0 0.00 0.00 0.00 89 1014.7
20260509022454 2 157 0.0 0.0 0.00 0.00 0.00 89 1014.7
20260509021954 2 157 0.0 0.0 0.00 0.00 0.00 89 1014.7
20260509021453 2 157 0.0 0.0 0.00 0.00 0.00 89 1014.8
20260509020953 2 157 0.0 0.0 0.00 0.00 0.00 89 1014.6
20260509020453 2 157 0.0 0.0 0.00 0.00 0.00 89 1014.5
20260509015953 2 157 0.0 0.0 0.00 0.00 0.00 89 1014.5
20260509015452 2 157 0.0 0.0 0.00 0.00 0.00 89 1014.7
20260509014952 2 157 0.0 0.0 0.00 0.00 0.00 89 1014.7
20260509014452 2 157 0.0 0.0 0.00 0.00 0.00 89 1014.6
20260509013951 2 157 0.0 0.0 0.00 0.00 0.00 89 1014.6
20260509013451 3 157 0.0 0.0 0.00 0.00 0.00 88 1014.6
20260509012951 3 157 0.0 0.0 0.00 0.00 0.00 88 1014.8
20260509012451 3 157 0.0 0.0 0.00 0.00 0.00 88 1014.7
20260509011950 3 157 0.0 0.0 0.00 0.00 0.00 88 1014.7
20260509011450 3 157 0.0 0.0 0.00 0.00 0.00 88 1014.7
20260509010950 3 157 0.0 0.0 0.00 0.00 0.00 88 1014.7
20260509010449 3 157 0.0 0.0 0.00 0.00 0.00 88 1014.8
20260509005949 3 157 0.0 0.0 0.00 0.00 0.00 88 1014.6
20260509005449 3 157 0.0 0.0 0.00 0.00 0.00 88 1014.7
20260509004949 3 157 0.0 0.0 0.00 0.00 0.00 88 1014.6
20260509004448 3 157 0.0 0.0 0.00 0.00 0.00 88 1014.6
20260509003948 3 157 0.0 0.0 0.00 0.00 0.00 88 1014.6
20260509003448 4 157 0.0 0.0 0.00 0.00 0.00 88 1014.7
20260509002947 4 157 0.0 0.0 0.00 0.00 0.00 88 1014.6
20260509002447 4 157 0.0 0.0 0.00 0.00 0.00 87 1014.7
20260509001947 4 157 0.0 0.0 0.00 0.00 0.00 87 1014.7
20260509001447 5 157 0.0 0.0 0.00 0.00 0.00 87 1014.8
20260509000946 5 157 0.0 0.0 0.00 0.00 0.00 87 1014.8
20260509000447 5 157 0.0 0.0 0.00 0.00 0.00 87 1014.7
20260508235946 5 157 0.0 0.0 0.00 0.00 0.00 87 1014.9
20260508235445 5 157 0.0 0.0 0.00 0.00 0.00 87 1014.8
20260508234945 5 157 0.0 0.0 0.00 0.00 0.00 87 1014.9
20260508234445 5 157 0.0 0.0 0.00 0.00 0.00 87 1014.7
20260508233945 6 157 0.0 0.0 0.00 0.00 0.00 87 1014.8
20260508233444 6 157 0.0 0.0 0.00 0.00 0.00 87 1014.7
20260508232944 6 157 0.0 0.0 0.00 0.00 0.00 87 1014.8
20260508232444 6 157 0.0 0.0 0.00 0.00 0.00 87 1014.7
20260508231943 6 135 0.0 0.0 0.00 0.00 0.00 87 1014.7
20260508231443 6 135 0.0 0.0 0.00 0.00 0.00 87 1014.7
20260508230943 6 135 0.0 0.0 0.00 0.00 0.00 86 1014.7
20260508230443 6 135 0.0 0.0 0.00 0.00 0.00 86 1014.7
20260508225942 7 112 0.0 0.0 0.00 0.00 0.00 86 1014.9
20260508225442 7 112 0.0 0.0 0.00 0.00 0.00 86 1014.7
20260508224942 7 67 0.0 0.0 0.00 0.00 0.00 86 1014.8
20260508224441 7 67 0.0 0.0 0.00 0.00 0.00 86 1014.7
20260508223941 7 67 0.0 0.0 0.00 0.00 0.00 86 1014.7
20260508223441 7 67 0.0 0.0 0.00 0.00 0.00 86 1014.9
20260508222941 7 67 0.0 0.0 0.00 0.00 0.00 86 1015.0
20260508222440 7 67 0.0 0.0 0.00 0.00 0.00 86 1014.9
20260508221940 7 90 0.0 0.0 0.00 0.00 0.00 86 1014.9
20260508221440 7 112 0.0 0.0 0.00 0.00 0.00 86 1015.0
20260508220939 7 112 0.0 0.0 0.00 0.00 0.00 86 1015.1
20260508220439 7 112 0.0 0.0 0.00 0.00 0.00 86 1014.9
20260508215939 8 67 0.0 0.0 0.00 0.00 0.00 86 1014.9
20260508215439 8 67 0.0 0.0 0.00 0.00 0.00 86 1015.0
20260508214938 8 135 0.0 0.0 0.00 0.00 0.00 86 1014.9
20260508214438 8 90 0.0 0.0 0.00 0.00 0.00 86 1014.9
20260508213938 8 90 0.0 0.0 0.00 0.00 0.00 85 1015.2
20260508213437 8 90 0.0 1.6 0.00 0.00 0.00 85 1014.9
20260508212937 8 112 0.0 0.0 0.00 0.00 0.00 85 1014.9
20260508212437 8 112 0.0 0.0 0.00 0.00 0.00 85 1015.0
20260508211937 8 90 0.0 0.0 0.00 0.00 0.00 85 1014.9
20260508211436 8 112 0.0 0.0 0.00 0.00 0.00 85 1015.0
20260508210936 8 157 0.0 0.0 0.00 0.00 0.00 85 1014.9
20260508210436 8 67 0.0 0.0 0.00 0.00 0.00 85 1015.0
20260508205935 8 67 0.0 0.0 0.00 0.00 0.00 84 1015.1
20260508205435 8 112 0.0 0.0 0.00 0.00 0.00 84 1015.1
20260508204935 8 90 0.0 0.0 0.00 0.00 0.00 84 1015.1
20260508204434 8 90 0.0 0.0 0.00 0.00 0.00 84 1015.1
20260508203934 8 90 0.0 0.0 0.00 0.00 0.00 84 1015.1
20260508203434 8 112 0.0 0.0 0.00 0.00 0.00 84 1015.1
20260508202934 8 90 0.0 0.0 0.00 0.00 0.00 84 1015.1
20260508202433 8 67 0.0 0.0 0.00 0.00 0.00 84 1015.0
20260508201933 8 67 0.0 0.0 0.00 0.00 0.00 84 1015.1
20260508201433 8 67 0.0 0.0 0.00 0.00 0.00 84 1015.2
20260508200932 8 67 0.0 0.0 0.00 0.00 0.00 84 1015.1
20260508200432 8 67 0.0 0.0 0.00 0.00 0.00 84 1015.1
20260508195932 8 45 0.0 0.0 0.00 0.00 0.00 84 1015.1
20260508195432 8 45 0.0 0.0 0.00 0.00 0.00 83 1015.1
20260508194931 8 45 0.0 0.0 0.00 0.00 0.00 83 1015.1
20260508194431 8 45 0.0 0.0 0.00 0.00 0.00 83 1014.9
20260508193931 8 45 0.0 0.0 0.00 0.00 0.00 83 1014.9
20260508193430 8 67 0.0 0.0 0.00 0.00 0.00 83 1015.0
20260508192930 8 67 0.0 0.0 0.00 0.00 0.00 83 1014.9
20260508192430 8 45 0.0 0.0 0.00 0.00 0.00 83 1015.0
20260508191930 8 67 0.0 0.0 0.00 0.00 0.00 83 1014.9
20260508191429 8 67 0.0 0.0 0.00 0.00 0.00 82 1014.9
20260508190929 8 67 0.0 0.0 0.00 0.00 0.00 82 1014.8
20260508190429 8 67 0.0 0.0 0.00 0.00 0.00 82 1014.7
20260508185928 8 67 0.0 0.0 0.00 0.00 0.00 82 1014.7
20260508185428 8 67 0.0 0.0 0.00 0.00 0.00 82 1014.7
20260508184928 8 45 0.0 0.0 0.00 0.00 0.00 81 1014.6
20260508184428 8 67 0.0 4.8 0.00 0.00 0.00 81 1014.4
20260508183927 8 45 4.8 4.8 0.00 0.00 0.00 80 1014.5
20260508183427 9 67 0.0 0.0 0.00 0.00 0.00 80 1014.3
20260508182927 9 67 0.0 0.0 0.00 0.00 0.00 79 1014.4
20260508182426 10 67 0.0 0.0 0.00 0.00 0.00 79 1014.3
20260508181926 10 45 0.0 0.0 0.00 0.00 0.00 78 1014.2
20260508181426 10 90 0.0 3.2 0.00 0.00 0.00 78 1014.2
20260508180926 10 67 0.0 1.6 0.00 0.00 0.00 77 1014.1
20260508180425 10 67 1.6 3.2 0.00 0.00 0.00 77 1014.0
20260508175925 10 45 3.2 3.2 0.00 0.00 0.00 77 1014.1
20260508175425 10 45 0.0 0.0 0.00 0.00 0.00 76 1014.1
20260508174924 10 67 0.0 0.0 0.00 0.00 0.00 76 1014.1
20260508174424 10 67 0.0 0.0 0.00 0.00 0.00 75 1014.0
20260508173924 10 67 0.0 1.6 0.00 0.00 0.00 75 1014.0
20260508173424 11 67 1.6 3.2 0.00 0.00 0.00 74 1014.0
20260508172923 11 45 0.0 3.2 0.00 0.00 0.00 72 1013.9
20260508172423 11 67 3.2 3.2 0.00 0.00 0.00 71 1013.8
20260508171923 11 67 0.0 8.0 0.00 0.00 0.00 71 1013.8
20260508171422 12 67 8.0 8.0 0.00 0.00 0.00 68 1013.8
20260508170922 13 67 0.0 3.2 0.00 0.00 0.00 67 1013.9
20260508170422 13 67 0.0 3.2 0.00 0.00 0.00 67 1013.7
20260508165922 13 67 1.6 11.3 0.00 0.00 0.00 71 1013.7
20260508165421 12 67 9.7 9.7 0.00 0.00 0.00 73 1013.7
20260508164921 12 67 3.2 3.2 0.00 0.00 0.00 72 1013.8
20260508164421 12 67 1.6 1.6 0.00 0.00 0.00 72 1013.7
20260508163920 12 67 0.0 4.8 0.00 0.00 0.00 72 1013.7
20260508163420 12 90 1.6 1.6 0.00 0.00 0.00 72 1013.8
20260508162920 12 112 0.0 0.0 0.00 0.00 0.00 72 1013.7
20260508162420 12 45 0.0 1.6 0.00 0.00 0.00 72 1013.7
20260508161919 11 67 0.0 4.8 0.00 0.00 0.00 71 1013.8
20260508161419 12 67 4.8 4.8 0.00 0.00 0.00 71 1013.7
20260508160919 12 67 0.0 3.2 0.00 0.00 0.00 70 1013.7
20260508160418 12 67 0.0 0.0 0.00 0.00 0.00 70 1013.7
20260508155918 12 67 0.0 0.0 0.00 0.00 0.00 70 1013.7
20260508155418 12 67 0.0 0.0 0.00 0.00 0.00 69 1013.9
20260508154918 12 67 0.0 0.0 0.00 0.00 0.00 69 1013.7
20260508154417 12 67 0.0 3.2 0.00 0.00 0.00 69 1013.8
20260508153917 12 67 3.2 3.2 0.00 0.00 0.00 68 1013.9
20260508153417 12 67 0.0 0.0 0.00 0.00 0.00 68 1013.7
20260508152916 12 67 0.0 0.0 0.00 0.00 0.00 68 1013.8
20260508152416 12 67 0.0 0.0 0.00 0.00 0.00 67 1013.8
20260508151916 13 67 0.0 0.0 0.00 0.00 0.00 67 1013.9
20260508151416 13 90 0.0 1.6 0.00 0.00 0.00 67 1013.8
20260508150915 13 45 1.6 1.6 0.00 0.00 0.00 68 1013.7
20260508150415 13 45 1.6 1.6 0.00 0.00 0.00 68 1013.7
20260508145915 12 90 0.0 0.0 0.00 0.05 0.00 68 1013.8
20260508145414 12 67 0.0 1.6 0.00 0.05 0.00 68 1013.8
20260508144914 12 67 1.6 1.6 0.00 0.05 0.00 68 1013.9
20260508144414 12 67 1.6 3.2 0.00 0.05 0.00 68 1013.8
20260508143913 12 67 3.2 4.8 0.00 0.05 0.00 68 1013.9
20260508143413 12 45 3.2 3.2 0.00 0.05 0.00 68 1013.9
20260508142913 12 67 0.0 0.0 0.00 0.05 0.00 69 1013.8
20260508142413 12 112 0.0 9.7 0.00 0.05 0.00 69 1013.9
20260508141912 12 67 9.7 9.7 0.00 0.05 0.00 69 1013.9
20260508141412 12 90 0.0 8.0 0.00 0.05 0.00 68 1013.9
20260508140912 12 45 4.8 8.0 0.00 0.05 0.00 68 1014.0
20260508140411 12 67 8.0 9.7 0.00 0.05 0.00 67 1014.0
20260508135911 13 45 9.7 9.7 0.00 0.10 0.00 66 1014.0
20260508135411 13 67 6.4 6.4 0.00 0.10 0.00 65 1014.1
20260508134911 13 67 4.8 8.0 0.00 0.10 0.00 64 1014.1
20260508134410 13 67 8.0 8.0 0.00 0.10 0.00 64 1014.1
20260508133910 13 45 6.4 6.4 0.00 0.10 0.00 64 1014.1
20260508133410 13 67 0.0 4.8 0.00 0.10 0.00 64 1014.1
20260508132909 13 90 0.0 8.0 0.00 0.10 0.00 64 1014.1
20260508132409 13 112 0.0 1.6 0.00 0.10 0.00 64 1014.1
20260508131909 13 90 0.0 9.7 0.00 0.10 0.00 64 1014.0
20260508131409 13 90 9.7 9.7 0.00 0.10 0.00 64 1014.0
20260508130908 13 67 3.2 3.2 0.00 0.10 0.00 65 1014.0
20260508130408 13 45 3.2 6.4 0.00 0.10 0.00 64 1014.1
20260508125908 13 112 0.0 8.0 0.00 0.15 0.00 64 1014.0
20260508125407 13 67 8.0 8.0 0.00 0.15 0.00 63 1014.0
20260508124907 13 90 0.0 0.0 0.00 0.15 0.00 62 1014.1
20260508124407 13 112 0.0 0.0 0.00 0.15 0.00 61 1013.9
20260508123907 14 112 0.0 0.0 0.00 0.15 0.00 61 1014.0
20260508123406 14 90 0.0 0.0 0.00 0.15 0.00 60 1014.0
20260508122906 14 90 0.0 0.0 0.00 0.15 0.00 60 1014.0
20260508122406 15 112 0.0 0.0 0.00 0.15 0.00 60 1014.0
20260508121905 15 112 0.0 0.0 0.00 0.15 0.00 60 1013.9
20260508121405 15 67 0.0 0.0 0.00 0.15 0.00 60 1014.1
20260508120905 15 45 0.0 0.0 0.00 0.15 0.00 59 1013.9
20260508120405 16 67 0.0 6.4 0.00 0.15 0.00 59 1013.9
20260508115904 16 112 6.4 6.4 0.00 0.15 0.00 60 1013.9
20260508115404 15 112 0.0 1.6 0.00 0.15 0.00 62 1014.0
20260508114904 15 90 1.6 1.6 0.00 0.15 0.00 62 1013.9
20260508114403 15 112 0.0 0.0 0.00 0.15 0.00 64 1014.1
20260508113903 14 90 0.0 3.2 0.00 0.15 0.00 64 1014.0
20260508113403 14 202 3.2 3.2 0.00 0.15 0.00 65 1013.9
20260508112903 13 112 0.0 0.0 0.00 0.15 0.00 65 1014.0
20260508112402 13 112 0.0 0.0 0.00 0.15 0.00 67 1014.1
20260508111902 13 112 0.0 0.0 0.00 0.15 0.00 66 1014.1
20260508111402 13 112 0.0 0.0 0.00 0.15 0.00 66 1014.0
20260508110901 13 112 0.0 0.0 0.00 0.15 0.00 67 1014.0
20260508110401 13 112 0.0 0.0 0.00 0.15 0.00 68 1014.0
20260508105901 13 90 0.0 0.0 0.00 0.20 0.00 67 1013.9
20260508105401 13 90 0.0 0.0 0.00 0.20 0.00 67 1013.9
20260508104900 13 90 0.0 0.0 0.00 0.20 0.00 68 1014.0
20260508104400 13 157 0.0 0.0 0.00 0.20 0.00 69 1014.0
20260508103900 13 67 0.0 0.0 0.00 0.20 0.00 70 1014.0
20260508103359 13 67 0.0 0.0 0.00 0.20 0.00 71 1014.1
20260508102859 13 112 0.0 0.0 0.00 0.20 0.00 72 1014.0
20260508102359 12 45 0.0 0.0 0.00 0.20 0.00 73 1014.1
20260508101859 12 112 0.0 0.0 0.00 0.20 0.00 74 1014.1
20260508101358 12 90 0.0 0.0 0.00 0.20 0.00 74 1014.0
20260508100858 11 67 0.0 0.0 0.00 0.20 0.00 75 1014.0
20260508100358 11 292 0.0 3.2 0.00 0.20 0.00 75 1014.0
20260508095857 11 67 0.0 0.0 0.00 0.20 0.00 76 1014.2
20260508095357 11 112 0.0 0.0 0.00 0.20 0.00 76 1014.4
20260508094857 10 112 0.0 0.0 0.00 0.20 0.00 77 1014.3
20260508094357 10 67 0.0 0.0 0.00 0.20 0.00 77 1014.3
20260508093856 10 45 0.0 3.2 0.00 0.20 0.00 78 1014.3
20260508093356 10 67 0.0 0.0 0.00 0.20 0.00 79 1014.2
20260508092856 10 67 0.0 0.0 0.00 0.20 0.00 79 1014.2
20260508092355 10 45 0.0 3.2 0.00 0.20 0.00 79 1014.2
20260508091855 10 67 0.0 3.2 0.00 0.20 0.00 79 1014.2
20260508091355 10 45 3.2 3.2 0.00 0.20 0.00 80 1014.3
20260508090855 10 67 0.0 6.4 0.00 0.20 0.00 79 1014.4
20260508090354 10 45 4.8 4.8 0.00 0.20 0.00 79 1014.4
20260508085854 10 90 0.0 4.8 0.00 0.25 0.00 79 1014.3
20260508085354 10 112 0.0 4.8 0.00 0.25 0.00 80 1014.3
20260508084853 10 112 0.0 3.2 0.00 0.25 0.00 80 1014.3
20260508084353 10 90 3.2 3.2 0.00 0.25 0.00 81 1014.2
20260508083853 10 135 0.0 3.2 0.00 0.25 0.00 82 1014.3
20260508083353 10 67 3.2 3.2 0.00 0.25 0.00 82 1014.4
20260508082852 10 67 0.0 0.0 0.00 0.25 0.00 83 1014.3
20260508082352 9 90 0.0 3.2 0.00 0.25 0.00 83 1014.2
20260508081852 9 67 3.2 3.2 0.00 0.25 0.00 84 1014.1
20260508081351 9 67 0.0 4.8 0.00 0.25 0.00 84 1014.1
20260508080851 9 67 4.8 4.8 0.00 0.25 0.00 84 1014.1
20260508080351 8 90 0.0 8.0 0.00 0.25 0.00 84 1014.0
20260508075850 8 67 8.0 8.0 0.00 0.25 0.00 84 1014.1
20260508075350 8 67 8.0 8.0 0.00 0.25 0.00 85 1014.1
20260508074850 8 67 1.6 1.6 0.00 0.25 0.00 85 1013.9
20260508074350 8 90 1.6 8.0 0.00 0.25 0.00 85 1013.9
20260508073849 8 45 8.0 8.0 0.00 0.25 0.00 85 1013.8
20260508073349 8 67 0.0 3.2 0.00 0.25 0.00 86 1013.7
20260508072849 8 67 3.2 3.2 0.00 0.25 0.00 86 1013.8
20260508072349 8 67 0.0 4.8 0.00 0.25 0.00 85 1013.9
20260508071848 8 90 4.8 4.8 0.00 0.25 0.00 85 1013.8
20260508071348 9 45 3.2 3.2 0.00 0.25 0.00 85 1013.6
20260508070848 10 67 1.6 1.6 0.00 0.25 0.00 85 1013.6
20260508070347 10 112 0.0 0.0 0.00 0.25 0.00 85 1013.8
20260508065847 10 112 0.0 0.0 0.00 0.30 0.00 87 1013.7
20260508065347 10 67 0.0 0.0 0.00 0.30 0.00 87 1013.6
20260508064847 10 112 0.0 0.0 0.00 0.30 0.00 88 1013.5
20260508064346 9 67 0.0 0.0 0.00 0.30 0.00 88 1013.5
20260508063846 8 112 0.0 0.0 0.00 0.30 0.00 89 1013.4
20260508063346 8 67 0.0 0.0 0.00 0.30 0.00 90 1013.4
20260508062845 8 67 0.0 0.0 0.00 0.30 0.00 90 1013.4
20260508062345 8 67 0.0 0.0 0.00 0.30 0.00 91 1013.4
20260508061845 8 112 0.0 0.0 0.00 0.30 0.00 91 1013.3
20260508061344 8 45 0.0 0.0 0.00 0.30 0.00 91 1013.2
20260508060844 7 90 0.0 0.0 0.00 0.30 0.00 91 1013.1
20260508060344 7 112 0.0 0.0 0.00 0.30 0.00 91 1013.3
20260508055844 7 112 0.0 0.0 0.00 0.41 0.00 92 1013.2
20260508055343 7 90 0.0 0.0 0.00 0.41 0.00 92 1013.0
20260508054843 7 90 0.0 0.0 0.00 0.41 0.00 92 1013.1
20260508054343 7 90 0.0 0.0 0.00 0.41 0.00 92 1013.0
20260508053842 7 67 0.0 0.0 0.00 0.41 0.00 92 1012.9
20260508053342 7 90 0.0 0.0 0.00 0.41 0.00 92 1012.9
20260508052842 7 45 0.0 0.0 0.00 0.41 0.00 92 1012.8
20260508052342 7 45 0.0 0.0 0.00 0.41 0.00 92 1012.7
20260508051841 7 67 0.0 1.6 0.00 0.41 0.00 92 1012.6
20260508051341 7 67 1.6 1.6 0.00 0.41 0.00 92 1012.9
20260508050841 7 45 0.0 0.0 0.00 0.41 0.00 92 1012.8
20260508050341 7 45 0.0 0.0 0.00 0.41 0.00 92 1012.7
20260508045840 7 67 0.0 0.0 0.00 0.51 0.00 92 1012.7
20260508045340 7 67 0.0 0.0 0.00 0.51 0.00 92 1012.8
20260508044840 6 67 0.0 0.0 0.00 0.51 0.00 92 1012.7
20260508044339 6 67 0.0 0.0 0.00 0.51 0.00 92 1012.5
20260508043839 6 45 0.0 0.0 0.00 0.51 0.00 92 1012.5
20260508043339 7 45 0.0 0.0 0.00 0.51 0.00 92 1012.5
20260508042838 6 45 0.0 0.0 0.00 0.51 0.00 92 1012.5
20260508042338 6 67 0.0 0.0 0.00 0.51 0.00 91 1012.6
20260508041838 6 45 0.0 0.0 0.00 0.51 0.00 91 1012.6
20260508041338 7 67 0.0 0.0 0.00 0.51 0.00 91 1012.5
20260508040837 7 67 0.0 0.0 0.00 0.51 0.00 91 1012.5
20260508040337 7 67 0.0 0.0 0.00 0.51 0.00 91 1012.5
20260508035837 7 67 0.0 0.0 0.00 0.76 0.00 92 1012.5
20260508035336 7 67 0.0 0.0 0.00 0.76 0.00 92 1012.4